Time,TemperatureF,DewpointF,PressureIn,WindDirection,WindDirectionDegrees,WindSpeedMPH,WindSpeedGustMPH,Humidity,HourlyPrecipIn,Conditions,Clouds,dailyrainin,SoftwareType,DateUTC
2013-04-14 00:00:00,39.0,37.4,29.94,NNE,22,0.0,0.0,94,0.00,,,0.00,WUHU21623XXSP,2013-04-14 07:00:00,
2013-04-14 00:05:00,39.0,37.4,29.94,NNE,22,0.0,0.0,94,0.00,,,0.00,WUHU21623XXSP,2013-04-14 07:05:00,
2013-04-14 00:10:00,39.0,37.4,29.94,NNE,22,0.0,0.0,94,0.00,,,0.00,WUHU21623XXSP,2013-04-14 07:10:00,
2013-04-14 00:15:00,39.0,37.4,29.94,NNE,22,0.0,0.0,94,0.00,,,0.00,WUHU21623XXSP,2013-04-14 07:15:00,
2013-04-14 00:20:00,39.0,37.4,29.94,NNE,22,0.0,0.0,94,0.00,,,0.00,WUHU21623XXSP,2013-04-14 07:20:00,
2013-04-14 00:25:00,39.0,37.4,29.95,NNE,22,0.0,0.0,94,0.00,,,0.00,WUHU21623XXSP,2013-04-14 07:25:00,
2013-04-14 00:30:00,39.0,37.4,29.95,NNE,22,0.0,0.0,94,0.00,,,0.00,WUHU21623XXSP,2013-04-14 07:30:00,
2013-04-14 00:35:00,39.0,37.4,29.95,NNE,22,0.0,0.0,94,0.00,,,0.00,WUHU21623XXSP,2013-04-14 07:35:00,
2013-04-14 00:40:00,39.0,37.4,29.95,NNE,22,0.0,0.0,94,0.00,,,0.00,WUHU21623XXSP,2013-04-14 07:40:00,
2013-04-14 00:45:00,39.0,37.4,29.95,NNE,22,0.0,0.0,94,0.00,,,0.00,WUHU21623XXSP,2013-04-14 07:45:00,
2013-04-14 00:50:00,39.0,37.4,29.96,NNE,22,0.0,0.0,94,0.00,,,0.00,WUHU21623XXSP,2013-04-14 07:50:00,
2013-04-14 00:55:00,38.8,37.4,29.96,NNE,22,0.0,0.0,94,0.00,,,0.00,WUHU21623XXSP,2013-04-14 07:55:00,
2013-04-14 01:00:00,39.0,37.2,29.96,NNE,22,0.0,0.0,94,0.00,,,0.00,WUHU21623XXSP,2013-04-14 08:00:00,
2013-04-14 01:05:00,39.0,37.4,29.96,NNE,22,0.0,0.0,94,0.00,,,0.00,WUHU21623XXSP,2013-04-14 08:05:00,
2013-04-14 01:10:00,39.0,37.7,29.96,NNE,22,0.0,0.0,95,0.00,,,0.00,WUHU21623XXSP,2013-04-14 08:10:00,
2013-04-14 01:15:00,39.0,37.4,29.96,NNE,22,0.0,0.0,94,0.00,,,0.00,WUHU21623XXSP,2013-04-14 08:15:00,
2013-04-14 01:20:00,39.0,37.7,29.96,NNE,22,0.0,0.0,94,0.00,,,0.00,WUHU21623XXSP,2013-04-14 08:20:00,
2013-04-14 01:25:00,39.0,37.4,29.96,NNE,22,0.0,0.0,94,0.00,,,0.00,WUHU21623XXSP,2013-04-14 08:25:00,
2013-04-14 01:30:00,38.8,37.5,29.96,NNE,22,0.0,0.0,95,0.00,,,0.00,WUHU21623XXSP,2013-04-14 08:30:00,
2013-04-14 01:35:00,38.8,37.2,29.96,NNE,22,0.0,0.0,95,0.00,,,0.00,WUHU21623XXSP,2013-04-14 08:35:00,
2013-04-14 01:40:00,38.8,37.5,29.96,ENE,67,0.0,0.0,95,0.00,,,0.00,WUHU21623XXSP,2013-04-14 08:40:00,
2013-04-14 01:45:00,38.8,37.5,29.96,ENE,67,0.0,0.0,95,0.00,,,0.00,WUHU21623XXSP,2013-04-14 08:45:00,
2013-04-14 01:50:00,38.8,37.5,29.96,ENE,67,0.0,0.0,95,0.00,,,0.00,WUHU21623XXSP,2013-04-14 08:50:00,
2013-04-14 01:55:00,38.8,37.5,29.96,ENE,67,0.0,0.0,95,0.00,,,0.00,WUHU21623XXSP,2013-04-14 08:55:00,
2013-04-14 02:00:00,38.5,37.5,29.96,ENE,67,0.0,0.0,95,0.00,,,0.00,WUHU21623XXSP,2013-04-14 09:00:00,
2013-04-14 02:05:00,38.5,37.1,29.96,ENE,67,0.0,0.0,95,0.00,,,0.00,WUHU21623XXSP,2013-04-14 09:05:00,
2013-04-14 02:10:00,38.5,37.1,29.95,ENE,67,0.0,0.0,95,0.00,,,0.00,WUHU21623XXSP,2013-04-14 09:10:00,
2013-04-14 02:15:00,38.5,37.1,29.96,ENE,67,0.0,0.0,95,0.00,,,0.00,WUHU21623XXSP,2013-04-14 09:15:00,
2013-04-14 02:20:00,38.3,37.0,29.96,ENE,67,0.0,0.0,95,0.00,,,0.00,WUHU21623XXSP,2013-04-14 09:20:00,
2013-04-14 02:25:00,38.3,37.0,29.96,ENE,67,0.0,0.0,95,0.00,,,0.00,WUHU21623XXSP,2013-04-14 09:25:00,
2013-04-14 02:30:00,38.3,37.0,29.96,ENE,67,0.0,0.0,95,0.00,,,0.00,WUHU21623XXSP,2013-04-14 09:30:00,
2013-04-14 02:35:00,38.3,37.0,29.96,ENE,67,0.0,0.0,95,0.00,,,0.00,WUHU21623XXSP,2013-04-14 09:35:00,
2013-04-14 02:40:00,38.1,36.8,29.96,ENE,67,0.0,0.0,95,0.00,,,0.00,WUHU21623XXSP,2013-04-14 09:40:00,
2013-04-14 02:45:00,38.1,36.8,29.96,ENE,67,0.0,0.0,95,0.00,,,0.00,WUHU21623XXSP,2013-04-14 09:45:00,
2013-04-14 02:50:00,38.1,36.8,29.96,ENE,67,0.0,0.0,95,0.00,,,0.00,WUHU21623XXSP,2013-04-14 09:50:00,
2013-04-14 02:55:00,38.1,37.0,29.96,ENE,67,0.0,0.0,95,0.00,,,0.00,WUHU21623XXSP,2013-04-14 09:55:00,
2013-04-14 03:00:00,38.1,36.8,29.96,ENE,67,0.0,0.0,95,0.00,,,0.00,WUHU21623XXSP,2013-04-14 10:00:00,
2013-04-14 03:05:00,38.3,37.0,29.96,ENE,67,0.0,0.0,95,0.00,,,0.00,WUHU21623XXSP,2013-04-14 10:05:00,
2013-04-14 03:10:00,38.3,37.0,29.96,ENE,67,0.0,0.0,95,0.00,,,0.00,WUHU21623XXSP,2013-04-14 10:10:00,
2013-04-14 03:15:00,38.1,36.8,29.96,ENE,67,0.0,0.0,95,0.00,,,0.00,WUHU21623XXSP,2013-04-14 10:15:00,
2013-04-14 03:20:00,38.3,37.0,29.96,ENE,67,0.0,0.0,95,0.00,,,0.00,WUHU21623XXSP,2013-04-14 10:20:00,
2013-04-14 03:25:00,38.3,37.0,29.97,ENE,67,0.0,0.0,95,0.00,,,0.00,WUHU21623XXSP,2013-04-14 10:25:00,
2013-04-14 03:30:00,38.3,37.0,29.96,ENE,67,0.0,0.0,95,0.00,,,0.00,WUHU21623XXSP,2013-04-14 10:30:00,
2013-04-14 03:35:00,38.5,37.1,29.96,ENE,67,0.0,0.0,95,0.00,,,0.00,WUHU21623XXSP,2013-04-14 10:35:00,
2013-04-14 03:40:00,38.5,37.1,29.96,ENE,67,0.0,0.0,95,0.00,,,0.00,WUHU21623XXSP,2013-04-14 10:40:00,
2013-04-14 03:45:00,38.5,37.1,29.96,ENE,67,0.0,0.0,95,0.00,,,0.00,WUHU21623XXSP,2013-04-14 10:45:00,
2013-04-14 03:50:00,38.5,37.1,29.96,ENE,67,0.0,0.0,95,0.00,,,0.00,WUHU21623XXSP,2013-04-14 10:50:00,
2013-04-14 03:55:00,38.5,37.1,29.96,ENE,67,0.0,0.0,95,0.00,,,0.00,WUHU21623XXSP,2013-04-14 10:55:00,
2013-04-14 04:00:00,38.3,37.0,29.95,ENE,67,0.0,0.0,95,0.00,,,0.00,WUHU21623XXSP,2013-04-14 11:00:00,
2013-04-14 04:05:00,38.3,37.0,29.96,ENE,67,0.0,0.0,95,0.00,,,0.00,WUHU21623XXSP,2013-04-14 11:05:00,
2013-04-14 04:10:00,38.3,37.0,29.96,NE,45,0.0,0.0,95,0.00,,,0.00,WUHU21623XXSP,2013-04-14 11:10:00,
2013-04-14 04:15:00,38.3,37.0,29.96,NE,45,0.0,0.0,95,0.00,,,0.00,WUHU21623XXSP,2013-04-14 11:15:00,
2013-04-14 04:20:00,38.1,36.8,29.96,NE,45,0.0,0.0,95,0.00,,,0.00,WUHU21623XXSP,2013-04-14 11:20:00,
2013-04-14 04:25:00,38.1,36.8,29.96,NE,45,0.0,0.0,95,0.00,,,0.00,WUHU21623XXSP,2013-04-14 11:25:00,
2013-04-14 04:30:00,37.9,36.6,29.96,NE,45,0.0,0.0,95,0.00,,,0.00,WUHU21623XXSP,2013-04-14 11:30:00,
2013-04-14 04:35:00,37.9,36.6,29.97,NE,45,0.0,0.0,95,0.00,,,0.00,WUHU21623XXSP,2013-04-14 11:35:00,
2013-04-14 04:40:00,37.9,36.6,29.97,WNW,292,0.0,0.0,95,0.00,,,0.00,WUHU21623XXSP,2013-04-14 11:40:00,
2013-04-14 04:45:00,37.9,36.6,29.97,WNW,292,0.0,0.0,95,0.00,,,0.00,WUHU21623XXSP,2013-04-14 11:45:00,
2013-04-14 04:50:00,37.9,36.6,29.97,WNW,292,0.0,0.0,95,0.00,,,0.00,WUHU21623XXSP,2013-04-14 11:50:00,
2013-04-14 04:55:00,37.9,36.6,29.97,WNW,292,0.0,0.0,95,0.00,,,0.00,WUHU21623XXSP,2013-04-14 11:55:00,
2013-04-14 05:00:00,37.9,36.6,29.97,WNW,292,0.0,0.0,95,0.00,,,0.00,WUHU21623XXSP,2013-04-14 12:00:00,
2013-04-14 05:05:00,38.1,36.8,29.96,WNW,292,0.0,0.0,95,0.00,,,0.00,WUHU21623XXSP,2013-04-14 12:05:00,
2013-04-14 05:10:00,37.9,36.6,29.97,WNW,292,0.0,0.0,95,0.00,,,0.00,WUHU21623XXSP,2013-04-14 12:10:00,
2013-04-14 05:15:00,37.9,36.6,29.97,WNW,292,0.0,0.0,95,0.00,,,0.00,WUHU21623XXSP,2013-04-14 12:15:00,
2013-04-14 05:20:00,37.9,36.6,29.97,WNW,292,0.0,0.0,95,0.00,,,0.00,WUHU21623XXSP,2013-04-14 12:20:00,
2013-04-14 05:25:00,37.9,36.6,29.97,WNW,292,0.0,0.0,95,0.00,,,0.00,WUHU21623XXSP,2013-04-14 12:25:00,
2013-04-14 05:30:00,37.9,36.6,29.96,WNW,292,0.0,0.0,95,0.00,,,0.00,WUHU21623XXSP,2013-04-14 12:30:00,
2013-04-14 05:35:00,37.9,36.6,29.97,WNW,292,0.0,0.0,95,0.00,,,0.00,WUHU21623XXSP,2013-04-14 12:35:00,
2013-04-14 05:40:00,37.9,36.6,29.96,WNW,292,0.0,0.0,95,0.00,,,0.00,WUHU21623XXSP,2013-04-14 12:40:00,
2013-04-14 05:45:00,37.8,36.4,29.96,WNW,292,0.0,0.0,95,0.00,,,0.00,WUHU21623XXSP,2013-04-14 12:45:00,
2013-04-14 05:50:00,37.8,36.4,29.96,WNW,292,0.0,0.0,95,0.00,,,0.00,WUHU21623XXSP,2013-04-14 12:50:00,
2013-04-14 05:55:00,37.8,36.4,29.97,WNW,292,0.0,0.0,95,0.00,,,0.00,WUHU21623XXSP,2013-04-14 12:55:00,
2013-04-14 06:00:00,37.6,36.2,29.97,WNW,292,0.0,0.0,95,0.00,,,0.00,WUHU21623XXSP,2013-04-14 13:00:00,
2013-04-14 06:05:00,37.6,36.2,29.97,WNW,292,0.0,0.0,95,0.00,,,0.00,WUHU21623XXSP,2013-04-14 13:05:00,
2013-04-14 06:10:00,37.6,36.2,29.96,WNW,292,0.0,0.0,95,0.00,,,0.00,WUHU21623XXSP,2013-04-14 13:10:00,
2013-04-14 06:15:00,37.6,36.2,29.96,WNW,292,0.0,0.0,95,0.00,,,0.00,WUHU21623XXSP,2013-04-14 13:15:00,
2013-04-14 06:20:00,37.4,36.0,29.96,WNW,292,0.0,0.0,95,0.00,,,0.00,WUHU21623XXSP,2013-04-14 13:20:00,
2013-04-14 06:25:00,37.4,36.0,29.96,WNW,292,0.0,0.0,95,0.00,,,0.00,WUHU21623XXSP,2013-04-14 13:25:00,
2013-04-14 06:30:00,37.4,36.0,29.96,WNW,292,0.0,0.0,95,0.00,,,0.00,WUHU21623XXSP,2013-04-14 13:30:00,
2013-04-14 06:35:00,37.4,35.9,29.96,WNW,292,0.0,0.0,95,0.00,,,0.00,WUHU21623XXSP,2013-04-14 13:35:00,
2013-04-14 06:40:00,37.4,36.0,29.96,WNW,292,0.0,0.0,95,0.00,,,0.00,WUHU21623XXSP,2013-04-14 13:40:00,
2013-04-14 06:45:00,37.2,35.9,29.96,WNW,292,0.0,0.0,95,0.00,,,0.00,WUHU21623XXSP,2013-04-14 13:45:00,
2013-04-14 06:50:00,37.2,35.9,29.96,WNW,292,0.0,0.0,95,0.00,,,0.00,WUHU21623XXSP,2013-04-14 13:50:00,
2013-04-14 06:55:00,37.2,35.6,29.96,WNW,292,0.0,0.0,94,0.00,,,0.00,WUHU21623XXSP,2013-04-14 13:55:00,
2013-04-14 07:00:00,37.2,35.9,29.96,WNW,292,0.0,0.0,95,0.00,,,0.00,WUHU21623XXSP,2013-04-14 14:00:00,
2013-04-14 07:05:00,37.2,35.9,29.96,WNW,292,0.0,0.0,95,0.00,,,0.00,WUHU21623XXSP,2013-04-14 14:05:00,
2013-04-14 07:10:00,37.2,35.9,29.96,WNW,292,0.0,0.0,95,0.00,,,0.00,WUHU21623XXSP,2013-04-14 14:10:00,
2013-04-14 07:15:00,37.2,35.9,29.96,WNW,292,0.0,0.0,95,0.00,,,0.00,WUHU21623XXSP,2013-04-14 14:15:00,
2013-04-14 07:20:00,37.2,35.9,29.96,WNW,292,0.0,0.0,95,0.00,,,0.00,WUHU21623XXSP,2013-04-14 14:20:00,
2013-04-14 07:25:00,37.2,35.9,29.96,WNW,292,0.0,0.0,95,0.00,,,0.00,WUHU21623XXSP,2013-04-14 14:25:00,
2013-04-14 07:30:00,37.2,35.9,29.96,WNW,292,0.0,0.0,95,0.00,,,0.00,WUHU21623XXSP,2013-04-14 14:30:00,
2013-04-14 07:35:00,37.6,36.2,29.96,WNW,292,0.0,0.0,95,0.00,,,0.00,WUHU21623XXSP,2013-04-14 14:35:00,
2013-04-14 07:40:00,37.6,36.2,29.96,WNW,292,0.0,0.0,95,0.00,,,0.00,WUHU21623XXSP,2013-04-14 14:40:00,
2013-04-14 07:45:00,37.8,36.4,29.96,WNW,292,0.0,0.0,95,0.00,,,0.00,WUHU21623XXSP,2013-04-14 14:45:00,
2013-04-14 07:50:00,37.9,36.6,29.96,WNW,292,0.0,0.0,95,0.00,,,0.00,WUHU21623XXSP,2013-04-14 14:50:00,
2013-04-14 07:55:00,38.1,36.8,29.96,WNW,292,0.0,0.0,95,0.00,,,0.00,WUHU21623XXSP,2013-04-14 14:55:00,
2013-04-14 08:00:00,38.1,36.8,29.96,WNW,292,0.0,0.0,95,0.00,,,0.00,WUHU21623XXSP,2013-04-14 15:00:00,
2013-04-14 08:05:00,38.3,37.0,29.96,WNW,292,0.0,0.0,95,0.00,,,0.00,WUHU21623XXSP,2013-04-14 15:05:00,
2013-04-14 08:10:00,38.8,37.5,29.95,WNW,292,0.0,0.0,95,0.00,,,0.00,WUHU21623XXSP,2013-04-14 15:10:00,
2013-04-14 08:15:00,38.8,37.5,29.95,WNW,292,0.0,0.0,95,0.00,,,0.00,WUHU21623XXSP,2013-04-14 15:15:00,
2013-04-14 08:20:00,39.0,37.7,29.95,WNW,292,0.0,0.0,95,0.00,,,0.00,WUHU21623XXSP,2013-04-14 15:20:00,
2013-04-14 08:25:00,39.0,37.7,29.96,WNW,292,0.0,0.0,95,0.00,,,0.00,WUHU21623XXSP,2013-04-14 15:25:00,
2013-04-14 08:30:00,39.4,38.0,29.95,WNW,292,0.0,0.0,95,0.00,,,0.00,WUHU21623XXSP,2013-04-14 15:30:00,
2013-04-14 08:35:00,39.4,38.0,29.95,WNW,292,0.0,0.0,95,0.00,,,0.00,WUHU21623XXSP,2013-04-14 15:35:00,
2013-04-14 08:40:00,39.6,38.2,29.95,WNW,292,0.0,0.0,95,0.00,,,0.00,WUHU21623XXSP,2013-04-14 15:40:00,
2013-04-14 08:45:00,39.7,38.4,29.95,WNW,292,0.0,0.0,95,0.00,,,0.00,WUHU21623XXSP,2013-04-14 15:45:00,
2013-04-14 08:50:00,39.9,38.6,29.95,SSW,202,0.0,0.0,95,0.00,,,0.00,WUHU21623XXSP,2013-04-14 15:50:00,
2013-04-14 08:55:00,40.3,38.9,29.95,SSW,202,0.0,0.0,95,0.00,,,0.00,WUHU21623XXSP,2013-04-14 15:55:00,
2013-04-14 09:00:00,40.3,38.9,29.95,SSW,202,0.0,0.0,95,0.00,,,0.00,WUHU21623XXSP,2013-04-14 16:00:00,
2013-04-14 09:05:00,40.5,39.1,29.95,SSW,202,0.0,0.0,95,0.00,,,0.00,WUHU21623XXSP,2013-04-14 16:05:00,
2013-04-14 09:10:00,40.8,39.5,29.95,SSW,202,0.0,0.0,95,0.00,,,0.00,WUHU21623XXSP,2013-04-14 16:10:00,
2013-04-14 09:15:00,41.2,39.8,29.95,NNE,22,0.0,0.0,95,0.00,,,0.00,WUHU21623XXSP,2013-04-14 16:15:00,
2013-04-14 09:20:00,41.5,40.2,29.95,North,0,0.0,0.0,95,0.00,,,0.00,WUHU21623XXSP,2013-04-14 16:20:00,
2013-04-14 09:25:00,42.1,40.5,29.95,North,0,0.0,0.0,95,0.00,,,0.00,WUHU21623XXSP,2013-04-14 16:25:00,
2013-04-14 09:30:00,42.4,41.1,29.95,North,0,0.0,0.0,95,0.00,,,0.00,WUHU21623XXSP,2013-04-14 16:30:00,
2013-04-14 09:35:00,42.6,41.0,29.95,NNE,22,0.0,0.0,94,0.00,,,0.00,WUHU21623XXSP,2013-04-14 16:35:00,
2013-04-14 09:40:00,42.6,41.0,29.95,NNE,22,0.0,0.0,94,0.00,,,0.00,WUHU21623XXSP,2013-04-14 16:40:00,
2013-04-14 09:45:00,43.3,41.7,29.95,North,0,0.0,0.0,94,0.00,,,0.00,WUHU21623XXSP,2013-04-14 16:45:00,
2013-04-14 09:50:00,43.9,41.9,29.95,North,0,0.0,0.0,94,0.00,,,0.00,WUHU21623XXSP,2013-04-14 16:50:00,
2013-04-14 09:55:00,44.4,42.6,29.95,North,0,0.0,0.0,94,0.00,,,0.00,WUHU21623XXSP,2013-04-14 16:55:00,
2013-04-14 10:00:00,44.8,42.9,29.95,West,270,0.0,0.0,93,0.00,,,0.00,WUHU21623XXSP,2013-04-14 17:00:00,
2013-04-14 10:05:00,45.3,43.2,29.94,WSW,247,0.0,0.0,92,0.00,,,0.00,WUHU21623XXSP,2013-04-14 17:05:00,
2013-04-14 10:10:00,45.3,43.2,29.95,WSW,247,0.0,0.0,92,0.00,,,0.00,WUHU21623XXSP,2013-04-14 17:10:00,
2013-04-14 10:15:00,45.1,43.2,29.94,WSW,247,0.0,0.0,92,0.00,,,0.00,WUHU21623XXSP,2013-04-14 17:15:00,
2013-04-14 10:20:00,45.1,42.7,29.95,WSW,247,0.0,0.0,91,0.00,,,0.00,WUHU21623XXSP,2013-04-14 17:20:00,
2013-04-14 10:25:00,45.3,42.7,29.95,WSW,247,0.0,0.0,91,0.00,,,0.00,WUHU21623XXSP,2013-04-14 17:25:00,
2013-04-14 10:30:00,45.7,42.8,29.95,WSW,247,0.0,0.0,90,0.00,,,0.00,WUHU21623XXSP,2013-04-14 17:30:00,
2013-04-14 10:35:00,46.0,43.2,29.95,WSW,247,0.0,0.0,90,0.00,,,0.00,WUHU21623XXSP,2013-04-14 17:35:00,
2013-04-14 10:40:00,46.2,43.2,29.95,WSW,247,0.0,0.0,89,0.00,,,0.00,WUHU21623XXSP,2013-04-14 17:40:00,
2013-04-14 10:45:00,46.9,44.2,29.95,SW,225,0.0,0.0,90,0.00,,,0.00,WUHU21623XXSP,2013-04-14 17:45:00,
2013-04-14 10:50:00,47.8,44.8,29.95,SW,225,0.0,0.0,89,0.00,,,0.00,WUHU21623XXSP,2013-04-14 17:50:00,
2013-04-14 10:55:00,48.4,44.7,29.95,North,0,0.0,0.0,87,0.00,,,0.00,WUHU21623XXSP,2013-04-14 17:55:00,
2013-04-14 11:00:00,48.0,44.3,29.95,North,0,0.0,0.0,87,0.00,,,0.00,WUHU21623XXSP,2013-04-14 18:00:00,
2013-04-14 11:05:00,47.3,43.3,29.95,SW,225,0.0,0.0,86,0.00,,,0.00,WUHU21623XXSP,2013-04-14 18:05:00,
2013-04-14 11:10:00,46.6,42.6,29.95,WSW,247,0.0,0.0,86,0.00,,,0.00,WUHU21623XXSP,2013-04-14 18:10:00,
2013-04-14 11:15:00,46.2,42.5,29.95,SW,225,0.0,0.0,86,0.00,,,0.00,WUHU21623XXSP,2013-04-14 18:15:00,
2013-04-14 11:20:00,45.7,42.1,29.95,SW,225,0.0,0.0,87,0.00,,,0.00,WUHU21623XXSP,2013-04-14 18:20:00,
2013-04-14 11:25:00,45.3,41.7,29.95,SW,225,0.0,0.0,87,0.00,,,0.00,WUHU21623XXSP,2013-04-14 18:25:00,
2013-04-14 11:30:00,45.0,41.3,29.95,SW,225,0.0,0.0,87,0.00,,,0.00,WUHU21623XXSP,2013-04-14 18:30:00,
2013-04-14 11:35:00,44.4,40.8,29.95,WSW,247,0.0,0.0,87,0.00,,,0.00,WUHU21623XXSP,2013-04-14 18:35:00,
2013-04-14 11:40:00,44.4,40.8,29.95,WSW,247,0.0,0.0,87,0.00,,,0.00,WUHU21623XXSP,2013-04-14 18:40:00,
2013-04-14 11:45:00,44.2,40.6,29.95,WSW,247,0.0,0.0,87,0.00,,,0.00,WUHU21623XXSP,2013-04-14 18:45:00,
2013-04-14 11:50:00,44.2,40.6,29.95,WSW,247,0.0,0.0,87,0.00,,,0.00,WUHU21623XXSP,2013-04-14 18:50:00,
2013-04-14 11:55:00,44.4,40.8,29.95,WSW,247,0.0,0.0,87,0.00,,,0.00,WUHU21623XXSP,2013-04-14 18:55:00,
2013-04-14 12:00:00,44.8,41.5,29.95,SSW,202,0.0,0.0,88,0.00,,,0.00,WUHU21623XXSP,2013-04-14 19:00:00,
2013-04-14 12:05:00,45.7,42.4,29.94,SW,225,0.0,0.0,88,0.00,,,0.00,WUHU21623XXSP,2013-04-14 19:05:00,
2013-04-14 12:10:00,46.4,42.8,29.94,SSW,202,0.0,0.0,87,0.00,,,0.00,WUHU21623XXSP,2013-04-14 19:10:00,
2013-04-14 12:15:00,47.1,43.2,29.94,WSW,247,0.0,0.0,86,0.00,,,0.00,WUHU21623XXSP,2013-04-14 19:15:00,
2013-04-14 12:20:00,47.7,43.0,29.94,SW,225,0.0,0.0,84,0.00,,,0.00,WUHU21623XXSP,2013-04-14 19:20:00,
2013-04-14 12:25:00,48.2,43.6,29.94,WSW,247,0.0,0.0,84,0.00,,,0.00,WUHU21623XXSP,2013-04-14 19:25:00,
2013-04-14 12:30:00,48.6,43.9,29.94,SE,135,0.0,0.0,84,0.00,,,0.00,WUHU21623XXSP,2013-04-14 19:30:00,
2013-04-14 12:35:00,48.9,43.9,29.94,SSW,202,0.0,0.0,83,0.00,,,0.00,WUHU21623XXSP,2013-04-14 19:35:00,
2013-04-14 12:40:00,49.3,44.1,29.94,WSW,247,0.0,0.0,83,0.00,,,0.00,WUHU21623XXSP,2013-04-14 19:40:00,
2013-04-14 12:45:00,49.8,44.8,29.94,WSW,247,0.0,0.0,83,0.00,,,0.00,WUHU21623XXSP,2013-04-14 19:45:00,
2013-04-14 12:50:00,50.5,45.0,29.93,WSW,247,0.0,0.0,79,0.00,,,0.00,WUHU21623XXSP,2013-04-14 19:50:00,
2013-04-14 12:55:00,50.7,44.8,29.93,WSW,247,0.0,0.0,80,0.00,,,0.00,WUHU21623XXSP,2013-04-14 19:55:00,
2013-04-14 13:00:00,50.5,44.3,29.93,WSW,247,0.0,0.0,79,0.00,,,0.00,WUHU21623XXSP,2013-04-14 20:00:00,
2013-04-14 13:05:00,50.5,44.3,29.93,WSW,247,0.0,0.0,77,0.00,,,0.00,WUHU21623XXSP,2013-04-14 20:05:00,
2013-04-14 13:10:00,50.2,43.2,29.93,NNE,22,0.0,0.0,77,0.00,,,0.00,WUHU21623XXSP,2013-04-14 20:10:00,
2013-04-14 13:15:00,50.2,42.9,29.92,NE,45,0.0,0.0,76,0.00,,,0.00,WUHU21623XXSP,2013-04-14 20:15:00,
2013-04-14 13:20:00,50.0,42.0,29.92,North,0,0.0,0.0,74,0.00,,,0.00,WUHU21623XXSP,2013-04-14 20:20:00,
2013-04-14 13:25:00,49.8,41.8,29.92,North,0,0.0,0.0,74,0.00,,,0.00,WUHU21623XXSP,2013-04-14 20:25:00,
2013-04-14 13:30:00,50.2,42.2,29.92,NNE,22,0.0,0.0,74,0.00,,,0.00,WUHU21623XXSP,2013-04-14 20:30:00,
2013-04-14 13:35:00,49.8,41.5,29.92,NNE,22,0.0,0.0,73,0.00,,,0.00,WUHU21623XXSP,2013-04-14 20:35:00,
2013-04-14 13:40:00,49.6,41.3,29.92,NNE,22,0.0,0.0,73,0.00,,,0.00,WUHU21623XXSP,2013-04-14 20:40:00,
2013-04-14 13:45:00,49.6,41.3,29.92,NNE,22,0.0,0.0,73,0.00,,,0.00,WUHU21623XXSP,2013-04-14 20:45:00,
2013-04-14 13:50:00,49.5,41.1,29.92,NNE,22,0.0,0.0,73,0.00,,,0.00,WUHU21623XXSP,2013-04-14 20:50:00,
2013-04-14 13:55:00,48.9,41.3,29.92,North,0,0.0,0.0,75,0.00,,,0.00,WUHU21623XXSP,2013-04-14 20:55:00,
2013-04-14 14:00:00,48.7,41.1,29.92,North,0,0.0,0.0,75,0.00,,,0.00,WUHU21623XXSP,2013-04-14 21:00:00,
2013-04-14 14:05:00,48.7,41.4,29.92,North,0,0.0,0.0,76,0.00,,,0.00,WUHU21623XXSP,2013-04-14 21:05:00,
2013-04-14 14:10:00,48.7,42.1,29.92,North,0,0.0,0.0,78,0.00,,,0.00,WUHU21623XXSP,2013-04-14 21:10:00,
2013-04-14 14:15:00,48.7,41.8,29.92,North,0,0.0,0.0,77,0.00,,,0.00,WUHU21623XXSP,2013-04-14 21:15:00,
2013-04-14 14:20:00,49.8,42.9,29.91,North,0,0.0,0.0,77,0.00,,,0.00,WUHU21623XXSP,2013-04-14 21:20:00,
2013-04-14 14:25:00,50.2,42.5,29.91,North,0,0.0,0.0,76,0.00,,,0.00,WUHU21623XXSP,2013-04-14 21:25:00,
2013-04-14 14:30:00,50.5,43.2,29.91,North,0,0.0,0.0,76,0.00,,,0.00,WUHU21623XXSP,2013-04-14 21:30:00,
2013-04-14 14:35:00,50.7,43.4,29.91,North,0,0.0,0.0,76,0.00,,,0.00,WUHU21623XXSP,2013-04-14 21:35:00,
2013-04-14 14:40:00,50.7,42.7,29.91,North,0,0.0,0.0,74,0.00,,,0.00,WUHU21623XXSP,2013-04-14 21:40:00,
2013-04-14 14:45:00,50.4,42.4,29.91,North,0,0.0,0.0,74,0.00,,,0.00,WUHU21623XXSP,2013-04-14 21:45:00,
2013-04-14 14:50:00,49.6,42.3,29.91,North,0,0.0,0.0,76,0.00,,,0.00,WUHU21623XXSP,2013-04-14 21:50:00,
2013-04-14 14:55:00,49.6,42.7,29.91,SW,225,0.0,0.0,77,0.00,,,0.00,WUHU21623XXSP,2013-04-14 21:55:00,
2013-04-14 15:00:00,49.3,42.7,29.90,SW,225,0.0,0.0,78,0.00,,,0.00,WUHU21623XXSP,2013-04-14 22:00:00,
2013-04-14 15:05:00,49.1,42.5,29.91,SSW,202,0.0,0.0,78,0.00,,,0.00,WUHU21623XXSP,2013-04-14 22:05:00,
2013-04-14 15:10:00,49.1,43.2,29.90,SSW,202,0.0,0.0,80,0.00,,,0.00,WUHU21623XXSP,2013-04-14 22:10:00,
2013-04-14 15:15:00,49.3,43.0,29.90,NW,315,0.0,0.0,79,0.00,,,0.00,WUHU21623XXSP,2013-04-14 22:15:00,
2013-04-14 15:20:00,50.0,42.7,29.90,NNW,337,0.0,0.0,76,0.00,,,0.00,WUHU21623XXSP,2013-04-14 22:20:00,
2013-04-14 15:25:00,50.4,42.7,29.90,NNW,337,0.0,0.0,75,0.00,,,0.00,WUHU21623XXSP,2013-04-14 22:25:00,
2013-04-14 15:30:00,50.4,42.4,29.90,North,0,0.0,0.0,74,0.00,,,0.00,WUHU21623XXSP,2013-04-14 22:30:00,
2013-04-14 15:35:00,50.2,43.1,29.90,North,0,0.0,0.0,76,0.00,,,0.00,WUHU21623XXSP,2013-04-14 22:35:00,
2013-04-14 15:40:00,49.6,43.0,29.90,SW,225,0.0,0.0,78,0.00,,,0.00,WUHU21623XXSP,2013-04-14 22:40:00,
2013-04-14 15:45:00,49.3,43.0,29.90,SW,225,0.0,0.0,79,0.00,,,0.00,WUHU21623XXSP,2013-04-14 22:45:00,
2013-04-14 15:50:00,48.7,42.8,29.89,SW,225,0.0,0.0,80,0.00,,,0.00,WUHU21623XXSP,2013-04-14 22:50:00,
2013-04-14 15:55:00,48.4,42.7,29.89,SW,225,0.0,0.0,81,0.00,,,0.00,WUHU21623XXSP,2013-04-14 22:55:00,
2013-04-14 16:00:00,48.0,42.4,29.89,SW,225,0.0,0.0,81,0.00,,,0.00,WUHU21623XXSP,2013-04-14 23:00:00,
2013-04-14 16:05:00,48.0,42.7,29.89,SW,225,0.0,0.0,82,0.00,,,0.00,WUHU21623XXSP,2013-04-14 23:05:00,
2013-04-14 16:10:00,48.0,43.1,29.89,SW,225,0.0,0.0,83,0.00,,,0.00,WUHU21623XXSP,2013-04-14 23:10:00,
2013-04-14 16:15:00,48.6,43.6,29.89,SW,225,0.0,0.0,83,0.00,,,0.00,WUHU21623XXSP,2013-04-14 23:15:00,
2013-04-14 16:20:00,48.9,43.1,29.88,NNW,337,0.0,0.0,81,0.00,,,0.00,WUHU21623XXSP,2013-04-14 23:20:00,
2013-04-14 16:25:00,48.9,43.3,29.89,North,0,0.0,0.0,80,0.00,,,0.00,WUHU21623XXSP,2013-04-14 23:25:00,
2013-04-14 16:30:00,48.7,42.8,29.88,North,0,0.0,0.0,80,0.00,,,0.00,WUHU21623XXSP,2013-04-14 23:30:00,
2013-04-14 16:35:00,48.0,42.4,29.89,North,0,0.0,0.0,81,0.00,,,0.00,WUHU21623XXSP,2013-04-14 23:35:00,
2013-04-14 16:40:00,48.0,42.7,29.88,North,0,0.0,0.0,82,0.00,,,0.00,WUHU21623XXSP,2013-04-14 23:40:00,
2013-04-14 16:45:00,47.7,42.7,29.88,North,0,0.0,0.0,83,0.00,,,0.00,WUHU21623XXSP,2013-04-14 23:45:00,
2013-04-14 16:50:00,47.1,42.2,29.88,North,0,0.0,0.0,83,0.00,,,0.00,WUHU21623XXSP,2013-04-14 23:50:00,
2013-04-14 16:55:00,47.1,42.5,29.88,North,0,0.0,0.0,84,0.00,,,0.00,WUHU21623XXSP,2013-04-14 23:55:00,
2013-04-14 17:00:00,46.8,42.2,29.88,North,0,0.0,0.0,84,0.00,,,0.00,WUHU21623XXSP,2013-04-15 00:00:00,
2013-04-14 17:05:00,46.6,42.3,29.88,North,0,0.0,0.0,85,0.00,,,0.00,WUHU21623XXSP,2013-04-15 00:05:00,
2013-04-14 17:10:00,46.6,42.3,29.88,North,0,0.0,0.0,86,0.00,,,0.00,WUHU21623XXSP,2013-04-15 00:10:00,
2013-04-14 17:15:00,46.6,42.6,29.88,North,0,0.0,0.0,86,0.00,,,0.00,WUHU21623XXSP,2013-04-15 00:15:00,
2013-04-14 17:20:00,46.2,42.3,29.88,North,0,0.0,0.0,86,0.00,,,0.00,WUHU21623XXSP,2013-04-15 00:20:00,
2013-04-14 17:25:00,46.2,42.3,29.88,North,0,0.0,0.0,86,0.00,,,0.00,WUHU21623XXSP,2013-04-15 00:25:00,
2013-04-14 17:30:00,46.0,42.1,29.88,North,0,0.0,0.0,86,0.00,,,0.00,WUHU21623XXSP,2013-04-15 00:30:00,
2013-04-14 17:35:00,45.9,42.1,29.88,North,0,0.0,0.0,87,0.00,,,0.00,WUHU21623XXSP,2013-04-15 00:35:00,
2013-04-14 17:40:00,45.7,42.1,29.88,North,0,0.0,0.0,87,0.00,,,0.00,WUHU21623XXSP,2013-04-15 00:40:00,
2013-04-14 17:45:00,46.0,42.4,29.88,North,0,0.0,0.0,87,0.00,,,0.00,WUHU21623XXSP,2013-04-15 00:45:00,
2013-04-14 17:50:00,46.0,42.4,29.88,North,0,0.0,0.0,87,0.00,,,0.00,WUHU21623XXSP,2013-04-15 00:50:00,
2013-04-14 17:55:00,46.0,42.7,29.87,North,0,0.0,0.0,88,0.00,,,0.00,WUHU21623XXSP,2013-04-15 00:55:00,
2013-04-14 18:00:00,46.0,42.7,29.88,North,0,0.0,0.0,88,0.00,,,0.00,WUHU21623XXSP,2013-04-15 01:00:00,
2013-04-14 18:05:00,46.0,42.7,29.87,North,0,0.0,0.0,88,0.00,,,0.00,WUHU21623XXSP,2013-04-15 01:05:00,
2013-04-14 18:10:00,46.0,42.7,29.87,North,0,0.0,0.0,88,0.00,,,0.00,WUHU21623XXSP,2013-04-15 01:10:00,
2013-04-14 18:15:00,46.0,42.7,29.88,North,0,0.0,0.0,88,0.00,,,0.00,WUHU21623XXSP,2013-04-15 01:15:00,
2013-04-14 18:20:00,46.0,42.7,29.87,North,0,0.0,0.0,88,0.00,,,0.00,WUHU21623XXSP,2013-04-15 01:20:00,
2013-04-14 18:25:00,46.0,42.7,29.87,West,270,0.0,0.0,88,0.00,,,0.00,WUHU21623XXSP,2013-04-15 01:25:00,
2013-04-14 18:30:00,45.9,42.9,29.87,West,270,0.0,0.0,89,0.00,,,0.00,WUHU21623XXSP,2013-04-15 01:30:00,
2013-04-14 18:35:00,45.5,42.5,29.87,West,270,0.0,0.0,89,0.00,,,0.00,WUHU21623XXSP,2013-04-15 01:35:00,
2013-04-14 18:40:00,45.3,42.3,29.87,South,180,0.0,0.0,89,0.00,,,0.00,WUHU21623XXSP,2013-04-15 01:40:00,
2013-04-14 18:45:00,45.1,41.8,29.87,South,180,0.0,0.0,88,0.00,,,0.00,WUHU21623XXSP,2013-04-15 01:45:00,
2013-04-14 18:50:00,44.8,41.8,29.87,South,180,0.0,0.0,89,0.00,,,0.00,WUHU21623XXSP,2013-04-15 01:50:00,
2013-04-14 18:55:00,44.6,41.6,29.87,South,180,0.0,0.0,89,0.00,,,0.00,WUHU21623XXSP,2013-04-15 01:55:00,
2013-04-14 19:00:00,44.4,41.4,29.87,South,180,0.0,0.0,89,0.00,,,0.00,WUHU21623XXSP,2013-04-15 02:00:00,
2013-04-14 19:05:00,44.4,41.4,29.87,South,180,0.0,0.0,89,0.00,,,0.00,WUHU21623XXSP,2013-04-15 02:05:00,
2013-04-14 19:10:00,44.2,41.2,29.87,South,180,0.0,0.0,89,0.00,,,0.00,WUHU21623XXSP,2013-04-15 02:10:00,
2013-04-14 19:15:00,44.2,41.2,29.87,South,180,0.0,0.0,89,0.00,,,0.00,WUHU21623XXSP,2013-04-15 02:15:00,
2013-04-14 19:20:00,44.1,41.4,29.87,South,180,0.0,0.0,90,0.00,,,0.00,WUHU21623XXSP,2013-04-15 02:20:00,
2013-04-14 19:25:00,43.9,41.4,29.87,South,180,0.0,0.0,90,0.00,,,0.00,WUHU21623XXSP,2013-04-15 02:25:00,
2013-04-14 19:30:00,43.9,41.2,29.87,South,180,0.0,0.0,90,0.00,,,0.00,WUHU21623XXSP,2013-04-15 02:30:00,
2013-04-14 19:35:00,43.9,41.2,29.87,South,180,0.0,0.0,90,0.00,,,0.00,WUHU21623XXSP,2013-04-15 02:35:00,
2013-04-14 19:40:00,43.9,41.2,29.87,South,180,0.0,0.0,90,0.00,,,0.00,WUHU21623XXSP,2013-04-15 02:40:00,
2013-04-14 19:45:00,43.7,41.3,29.87,South,180,0.0,0.0,91,0.00,,,0.00,WUHU21623XXSP,2013-04-15 02:45:00,
2013-04-14 19:50:00,43.7,41.3,29.87,South,180,0.0,0.0,91,0.00,,,0.00,WUHU21623XXSP,2013-04-15 02:50:00,
2013-04-14 19:55:00,43.5,40.8,29.87,South,180,0.0,0.0,90,0.00,,,0.00,WUHU21623XXSP,2013-04-15 02:55:00,
2013-04-14 20:00:00,43.3,40.6,29.88,South,180,0.0,0.0,90,0.00,,,0.00,WUHU21623XXSP,2013-04-15 03:00:00,
2013-04-14 20:05:00,43.2,40.5,29.87,South,180,0.0,0.0,90,0.00,,,0.00,WUHU21623XXSP,2013-04-15 03:05:00,
2013-04-14 20:10:00,43.0,40.3,29.88,South,180,0.0,0.0,90,0.00,,,0.00,WUHU21623XXSP,2013-04-15 03:10:00,
2013-04-14 20:15:00,42.6,39.9,29.88,South,180,0.0,0.0,90,0.00,,,0.00,WUHU21623XXSP,2013-04-15 03:15:00,
2013-04-14 20:20:00,42.4,39.7,29.88,South,180,0.0,0.0,90,0.00,,,0.00,WUHU21623XXSP,2013-04-15 03:20:00,
2013-04-14 20:25:00,42.1,39.4,29.88,South,180,0.0,0.0,90,0.00,,,0.00,WUHU21623XXSP,2013-04-15 03:25:00,
2013-04-14 20:30:00,42.1,39.4,29.88,South,180,0.0,0.0,90,0.00,,,0.00,WUHU21623XXSP,2013-04-15 03:30:00,
2013-04-14 20:35:00,41.7,39.3,29.88,South,180,0.0,0.0,91,0.00,,,0.00,WUHU21623XXSP,2013-04-15 03:35:00,
2013-04-14 20:41:00,41.5,39.1,29.88,South,180,0.0,0.0,91,0.00,,,0.00,WUHU21623XXSP,2013-04-15 03:41:00,
2013-04-14 20:45:00,41.5,39.1,29.88,South,180,0.0,0.0,91,0.00,,,0.00,WUHU21623XXSP,2013-04-15 03:45:00,
2013-04-14 20:51:00,41.4,38.9,29.89,South,180,0.0,0.0,91,0.00,,,0.00,WUHU21623XXSP,2013-04-15 03:51:00,
2013-04-14 20:56:00,41.2,38.8,29.89,South,180,0.0,0.0,91,0.00,,,0.00,WUHU21623XXSP,2013-04-15 03:56:00,
2013-04-14 21:00:00,40.8,38.6,29.89,South,180,0.0,0.0,91,0.00,,,0.00,WUHU21623XXSP,2013-04-15 04:00:00,
2013-04-14 21:01:00,40.8,38.6,29.89,South,180,0.0,0.0,91,0.00,,,0.00,WUHU21623XXSP,2013-04-15 04:01:00,
2013-04-14 21:06:00,40.8,38.4,29.89,South,180,0.0,0.0,91,0.00,,,0.00,WUHU21623XXSP,2013-04-15 04:06:00,
2013-04-14 21:11:00,40.6,38.2,29.89,South,180,0.0,0.0,91,0.00,,,0.00,WUHU21623XXSP,2013-04-15 04:11:00,
2013-04-14 21:16:00,40.5,38.0,29.89,South,180,0.0,0.0,91,0.00,,,0.00,WUHU21623XXSP,2013-04-15 04:16:00,
2013-04-14 21:21:00,40.1,37.7,29.89,South,180,0.0,0.0,91,0.00,,,0.00,WUHU21623XXSP,2013-04-15 04:21:00,
2013-04-14 21:26:00,39.9,37.5,29.89,South,180,0.0,0.0,91,0.00,,,0.00,WUHU21623XXSP,2013-04-15 04:26:00,
2013-04-14 21:31:00,39.7,37.3,29.89,South,180,0.0,0.0,91,0.00,,,0.00,WUHU21623XXSP,2013-04-15 04:31:00,
2013-04-14 21:36:00,39.6,37.1,29.89,South,180,0.0,0.0,91,0.00,,,0.00,WUHU21623XXSP,2013-04-15 04:36:00,
2013-04-14 21:41:00,39.6,37.1,29.89,South,180,0.0,0.0,91,0.00,,,0.00,WUHU21623XXSP,2013-04-15 04:41:00,
2013-04-14 21:46:00,39.4,37.2,29.89,South,180,0.0,0.0,92,0.00,,,0.00,WUHU21623XXSP,2013-04-15 04:46:00,
2013-04-14 21:51:00,39.4,37.2,29.89,South,180,0.0,0.0,92,0.00,,,0.00,WUHU21623XXSP,2013-04-15 04:51:00,
2013-04-14 21:56:00,39.2,37.0,29.89,South,180,0.0,0.0,92,0.00,,,0.00,WUHU21623XXSP,2013-04-15 04:56:00,
2013-04-14 22:01:00,39.0,36.9,29.89,South,180,0.0,0.0,92,0.00,,,0.00,WUHU21623XXSP,2013-04-15 05:01:00,
2013-04-14 22:06:00,39.0,36.9,29.90,South,180,0.0,0.0,92,0.00,,,0.00,WUHU21623XXSP,2013-04-15 05:06:00,
2013-04-14 22:11:00,39.0,36.9,29.90,South,180,0.0,0.0,92,0.00,,,0.00,WUHU21623XXSP,2013-04-15 05:11:00,
2013-04-14 22:16:00,39.0,36.9,29.90,South,180,0.0,0.0,92,0.00,,,0.00,WUHU21623XXSP,2013-04-15 05:16:00,
2013-04-14 22:21:00,38.8,36.7,29.90,South,180,0.0,0.0,92,0.00,,,0.00,WUHU21623XXSP,2013-04-15 05:21:00,
2013-04-14 22:26:00,38.8,36.7,29.90,South,180,0.0,0.0,92,0.00,,,0.00,WUHU21623XXSP,2013-04-15 05:26:00,
2013-04-14 22:31:00,38.8,36.7,29.90,South,180,0.0,0.0,92,0.00,,,0.00,WUHU21623XXSP,2013-04-15 05:31:00,
2013-04-14 22:36:00,38.8,36.7,29.90,South,180,0.0,0.0,92,0.00,,,0.00,WUHU21623XXSP,2013-04-15 05:36:00,
2013-04-14 22:41:00,38.8,36.7,29.90,South,180,0.0,0.0,92,0.00,,,0.00,WUHU21623XXSP,2013-04-15 05:41:00,
2013-04-14 22:46:00,38.8,36.7,29.90,South,180,0.0,0.0,92,0.00,,,0.00,WUHU21623XXSP,2013-04-15 05:46:00,
2013-04-14 22:51:00,38.7,36.7,29.90,South,180,0.0,0.0,92,0.00,,,0.00,WUHU21623XXSP,2013-04-15 05:51:00,
2013-04-14 22:56:00,38.7,36.5,29.90,South,180,0.0,0.0,92,0.00,,,0.00,WUHU21623XXSP,2013-04-15 05:56:00,
2013-04-14 23:01:00,38.8,36.7,29.90,South,180,0.0,0.0,92,0.00,,,0.00,WUHU21623XXSP,2013-04-15 06:01:00,
2013-04-14 23:06:00,38.8,36.7,29.90,South,180,0.0,0.0,92,0.00,,,0.00,WUHU21623XXSP,2013-04-15 06:06:00,
2013-04-14 23:11:00,38.7,36.5,29.90,ESE,112,0.0,0.0,92,0.00,,,0.00,WUHU21623XXSP,2013-04-15 06:11:00,
2013-04-14 23:16:00,38.5,36.3,29.90,ESE,112,0.0,0.0,92,0.00,,,0.00,WUHU21623XXSP,2013-04-15 06:16:00,
2013-04-14 23:21:00,38.5,36.6,29.90,ESE,112,0.0,0.0,93,0.00,,,0.00,WUHU21623XXSP,2013-04-15 06:21:00,
2013-04-14 23:26:00,38.5,36.6,29.90,ESE,112,0.0,0.0,93,0.00,,,0.00,WUHU21623XXSP,2013-04-15 06:26:00,
2013-04-14 23:31:00,38.5,36.6,29.91,ESE,112,0.0,0.0,93,0.00,,,0.00,WUHU21623XXSP,2013-04-15 06:31:00,
2013-04-14 23:36:00,38.7,36.8,29.91,ESE,112,0.0,0.0,93,0.00,,,0.00,WUHU21623XXSP,2013-04-15 06:36:00,
2013-04-14 23:41:00,38.5,36.6,29.91,ESE,112,0.0,0.0,93,0.00,,,0.00,WUHU21623XXSP,2013-04-15 06:41:00,
2013-04-14 23:46:00,38.8,37.0,29.91,ESE,112,0.0,0.0,93,0.00,,,0.00,WUHU21623XXSP,2013-04-15 06:46:00,
2013-04-14 23:51:00,38.8,37.0,29.91,ESE,112,0.0,0.0,93,0.00,,,0.00,WUHU21623XXSP,2013-04-15 06:51:00,
2013-04-14 23:56:00,38.8,37.0,29.90,ESE,112,0.0,0.0,93,0.00,,,0.00,WUHU21623XXSP,2013-04-15 06:56:00,